Regional Weather Roundup
Issued by NWS Midland/Odessa, TX

Skip options and go directly to product.
Home | Oldest Version | Next Version | Current Version | All | Text Only | Save Text | Print | Product List | Glossary On

Skip product version selection by date and time.   
669
ASUS44 KMAF 212101
RWRMAF
MIDLAND AREA WEATHER ROUNDUP
NATIONAL WEATHER SERVICE MIDLAND TX
300 PM CST SUN DEC 21 2014

...IN SOUTHWEST TEXAS AND SOUTHEAST NEW MEXICO...

CITY           SKY/WX    TMP DP  RH WIND       PRES   REMARKS
ALPINE         MOSUNNY   65  21  19 W22G28    29.96F
ANDREWS        FAIR      63  29  27 W15G25    29.80S
ARTESIA        MOSUNNY   66  28  24 W18       29.79F
BIG SPRING     SUNNY     66  30  25 SW20G25   29.80F
CARLSBAD       SUNNY     67  25  20 W26G36    29.80R
DRYDEN           N/A     72  31  22 SW22      29.83F
FORT STOCKTON  SUNNY     71  20  14 W13       29.83F
GUAD PASS      NOT AVBL
HOBBS          SUNNY     64  25  22 SW18      29.80F
MARFA          MOSUNNY   61  21  21 W20G26    29.95F
MIDLAND AIRPK  SUNNY     65  30  27 SW16G22   29.81F
MIDLAND INTL   SUNNY     65  30  27 W15       29.80F
ODESSA         SUNNY     65  27  23 W16       29.81F
PECOS          SUNNY     69  26  19 W25G31    29.81F
PRESIDIO       FAIR      66  28  23 SW9       29.95F
SEMINOLE       SUNNY     65  29  25 SW16G23   29.79F
SNYDER         SUNNY     64  34  32 SW18G24   29.76F
WINK           SUNNY     69  23  17 W22G32    29.78F
$$
...OTHER STATIONS IN TEXAS...

CITY           SKY/WX    TMP DP  RH WIND       PRES   REMARKS
ABILENE        SUNNY     60  42  51 S23G30    29.78F
AMARILLO       MOSUNNY   58  22  24 S5        29.65F
AUSTIN         CLOUDY    55  49  80 S9        29.94F
BROWNSVILLE    CLOUDY    66  60  81 N8        29.94F
CORPUS CHRISTI CLOUDY    61  54  77 E5        29.96F
DALLAS FTW     CLOUDY    51  45  79 S15       29.87F
DEL RIO        CLOUDY    54  48  80 SE8       29.91F
EL PASO        PTSUNNY   61  26  26 NW6G16    29.94F
HOUSTON INT    PTSUNNY   60  49  66 SE3       29.98F
LUBBOCK        PTSUNNY   64  25  22 W26G36    29.69F
SAN ANGELO     SUNNY     62  41  46 SW17G24   29.81F
SAN ANTONIO    CLOUDY    55  50  83 SW12      29.94F
WACO           CLOUDY    54  46  74 S14       29.92F
WICHITA FALLS  NOT AVBL
$$
...OTHER LOCATIONS IN NEW MEXICO...

CITY           SKY/WX    TMP DP  RH WIND       PRES   REMARKS
ALAMAGORDO     PTSUNNY   54  27  35 CALM      29.95F
ALBUQUERQUE    PTSUNNY   48  27  44 N5        29.93F
CANNON AFB     SUNNY     60  25  26 W26G35    29.67F
CLOVIS         SUNNY     61  27  27 W21G32    29.67F
HOLLOMAN AFB   MOSUNNY   55  28  35 CALM      29.93F
ROSWELL        PTSUNNY   65  25  22 NW15      29.78F
RUIDOSO        PTSUNNY   50  23  34 W21G28    29.91F
SANTA FE       MOSUNNY   43  25  49 N12       29.90F WCI  37
TRUTH OR CONSE MOSUNNY   55  24  30 S13       29.92F
TUCUMCARI      CLOUDY    61  19  19 SW15      29.62F
$$

USA.gov is the U.S. government's official web portal to all federal, state and local government web resources and services.